Location: Lombard
(41.8800°N, 88.0080°W)
Time: 13:26:34
(UTC-05:00)

A-11 Canister half - Pass Details

Date: 29 January 2023
Orbit: 1512 x 1687 km, 47.2° (Epoch: 20 March)

Event Time Altitude Azimuth Distance (km) Brightness Sun altitude
Rises 18:23:45 0° 297° (WNW) 4,688 12.4 -15.1°
Reaches altitude 10° 18:26:51 10° 293° (WNW) 3,690 11.9 -15.7°
Maximum altitude 18:35:51 58° 218° (SW) 1,719 9.5 -17.4°
Drops below altitude 10° 18:44:49 10° 142° (SE) 3,677 10.7 -19.0°
Sets 18:47:55 0° 138° (SE) 4,670 11.2 -19.6°
Enters shadow 18:47:59 - 138° (SE) 4,692 11.2 -19.6°
